{"data":{"norad_id":69317,"epoch":"2026-09-20T00:23:59.839584Z","epoch_age_seconds":70786,"freshness":"FRESH","line1":"1 69317U 26119X   26263.01666481  .00008696  00000+0  27130-3 0  9990","line2":"2 69317  97.2838 287.8239 0001286  93.4728 266.6662 15.33453099 17345","mean_motion":15.33453099,"eccentricity":0.0001286,"inclination_deg":97.2838,"raan_deg":287.8239,"arg_perigee_deg":93.4728,"mean_anomaly_deg":266.6662,"bstar":0.0002713,"rev_number":1734,"period_min":93.905708687084,"perigee_km":464.63898348673,"apogee_km":466.39917182991,"semimajor_km":6843.6560776583,"source":"CELESTRAK","updated_at":"2026-09-20T09:00:44.158263Z"}}